Bellingham, Washington, United States (98225)
Lat: 48.76N, Lon: 122.49W
Wx Zone: WAZ503
Local Info
Past Weather Observations for Wednesday, February 25, 2015

NOTE: This archive is for the closest National Weather Service station to Bellingham. Information may differ from the station used for current weather conditions.

Click here for Long-term Archive

Time Weather Temperature Dewpoint Humidity Pressure Winds Precip Visibility
22:27
Overcast
45°F / 7°C 43°F / 6°C 93% 30.27 in
(1025 mb)
SE 4.6 mph
(SE 7 kph)
0.00 in
(0.00 mm)
22:16
Overcast
45°F / 7°C 43°F / 6°C 93% 30.27 in
(1025 mb)
SE 4.6 mph
(SE 7 kph)
0.00 in
(0.00 mm)
21:53
Overcast
45°F / 7°C 43°F / 6°C 93% 30.27 in
(1025 mb)
SE 3.5 mph
(SE 6 kph)
0.01 in
(0.25 mm)
21:43
Overcast
Fog And Mist
45°F / 7°C 43°F / 6°C 93% 30.27 in
(1025 mb)
Calm - 3SM
21:32
Overcast
Fog And Mist
45°F / 7°C 43°F / 6°C 93% 30.27 in
(1025 mb)
Calm - 3SM
21:00
Overcast
Fog And Mist
45°F / 7°C 43°F / 6°C 93% 30.27 in
(1025 mb)
Calm - 2 1/2SM
20:53
Overcast
Fog And Mist
45°F / 7°C 43°F / 6°C 93% 30.27 in
(1025 mb)
Calm 0.00 in
(0.00 mm)
3SM
20:25
Overcast
Fog And Mist
45°F / 7°C 43°F / 6°C 93% 30.27 in
(1025 mb)
Calm - 1 3/4SM
19:53
Overcast
45°F / 7°C 45°F / 7°C 100% 30.27 in
(1025 mb)
Calm -
19:06
Overcast
Fog And Mist
45°F / 7°C 43°F / 6°C 93% 30.3 in
(1026 mb)
Calm - 3SM
18:57
Overcast
Fog And Mist
46°F / 8°C 43°F / 6°C 87% 30.3 in
(1026 mb)
Calm - 2 1/2SM
18:53
Overcast
45°F / 7°C 43°F / 6°C 93% 30.3 in
(1026 mb)
Calm -
17:53
Overcast
46°F / 8°C 45°F / 7°C 93% 30.3 in
(1026 mb)
Calm 0.00 in
(0.00 mm)
7SM
16:53
Overcast
Light Rain
46°F / 8°C 45°F / 7°C 93% 30.33 in
(1027 mb)
Calm 0.02 in
(0.51 mm)
9SM
16:39
Overcast
Light Rain
46°F / 8°C 43°F / 6°C 87% 30.33 in
(1027 mb)
S 4.6 mph
(S 7 kph)
0.02 in
(0.51 mm)
10SM
16:32
Overcast
Light Rain
46°F / 8°C 45°F / 7°C 93% 30.33 in
(1027 mb)
S 3.5 mph
(S 6 kph)
0.02 in
(0.51 mm)
8SM
15:53
Overcast
Light Rain
46°F / 8°C 43°F / 6°C 87% 30.33 in
(1027 mb)
S 3.5 mph
(S 6 kph)
0.05 in
(1.27 mm)
14:53
Overcast
Light Rain
46°F / 8°C 41°F / 5°C 82% 30.36 in
(1028 mb)
Calm 0.00 in
(0.00 mm)
10SM
14:29
Overcast
46°F / 8°C 41°F / 5°C 82% 30.36 in
(1028 mb)
SSE 4.6 mph
(SSE 7 kph)
- 10SM
13:53
Overcast
46°F / 8°C 43°F / 6°C 87% 30.36 in
(1028 mb)
SSE 3.5 mph
(SSE 6 kph)
- 10SM
13:03
Overcast
46°F / 8°C 43°F / 6°C 87% 30.36 in
(1028 mb)
S 4.6 mph
(S 7 kph)
- 10SM
12:53
Overcast
46°F / 8°C 41°F / 5°C 82% 30.36 in
(1028 mb)
S 3.5 mph
(S 6 kph)
0.00 in
(0.00 mm)
10SM
12:34
Overcast
Light Rain
46°F / 8°C 41°F / 5°C 82% 30.36 in
(1028 mb)
Calm 0.00 in
(0.00 mm)
10SM
12:27
Overcast
Light Rain
46°F / 8°C 41°F / 5°C 82% 30.39 in
(1029 mb)
Calm 0.00 in
(0.00 mm)
10SM
11:53
Overcast
Light Rain
46°F / 8°C 39°F / 4°C 76% 30.39 in
(1029 mb)
Calm 0.00 in
(0.00 mm)
10:53
Overcast
45°F / 7°C 37°F / 3°C 76% 30.39 in
(1029 mb)
Calm - 10SM
09:53
Overcast
45°F / 7°C 37°F / 3°C 76% 30.42 in
(1030 mb)
Calm - 10SM
08:53
Overcast
43°F / 6°C 37°F / 3°C 81% 30.42 in
(1030 mb)
Calm -
07:53
Overcast
41°F / 5°C 37°F / 3°C 87% 30.42 in
(1030 mb)
Calm - 10SM
06:53
Overcast
39°F / 4°C 36°F / 2°C 87% 30.39 in
(1029 mb)
N 3.5 mph
(N 6 kph)
- 10SM
05:53
Overcast
39°F / 4°C 36°F / 2°C 87% 30.42 in
(1030 mb)
Calm - 10SM
05:27
Overcast
39°F / 4°C 36°F / 2°C 87% 30.42 in
(1030 mb)
Calm - 10SM
04:53
Overcast
39°F / 4°C 36°F / 2°C 87% 30.42 in
(1030 mb)
Calm - 10SM
04:48
Overcast
41°F / 5°C 37°F / 3°C 87% 30.42 in
(1030 mb)
N 3.5 mph
(N 6 kph)
- 10SM
03:53
Overcast
37°F / 3°C 36°F / 2°C 93% 30.39 in
(1029 mb)
Calm - 10SM
03:43
Overcast
37°F / 3°C 36°F / 2°C 93% 30.39 in
(1029 mb)
Calm - 10SM
02:53
Overcast
36°F / 2°C 34°F / 1°C 93% 30.39 in
(1029 mb)
Calm -
01:53
Overcast
34°F / 1°C 32°F / 0°C 93% 30.39 in
(1029 mb)
Calm -
00:53
Clear
34°F / 1°C 30°F / -1°C 87% 30.39 in
(1029 mb)
Calm -
Time Weather Temperature Dewpoint Humidity Pressure Winds Precip Visibility


Weather for websites

WeatherForYou.com, LLC is not responsible for any damages or problems caused by this service. Current weather conditions are obtained from the closest station including government and personal stations which may have varying degrees of accuracy. Weather forecasts are derived from the NOAA NDFD. Like all things, this site belongs to Jesus Christ... He just trusts me to maintain it. If you have any questions or comments email webmaster@weatherforyou.com

Copyright © 2015, WeatherForYou.com LLC. All rights reserved.